Regional Weather Roundup
Issued by NWS

Home | Current Version | Previous Version | Graphics & Text | Print | Product List | Glossary On
Versions: 1 2 3 4 5 6 7 8 9 10 11 12 13 14 15 16 17 18 19 20 21 22 23 24 25 26 27 28 29 30 31 32 33 34 35 36 37 38 39 40 41 42 43 44 45 46 47 48 49 50
000
ASUS43 KIND 080309
RWRIN

WEATHER ROUNDUP FOR INDIANA
NATIONAL WEATHER SERVICE INDIANAPOLIS IN
1100 PM EDT TUE JUL 07 2015

NOTE: "FAIR" INDICATES FEW OR NO CLOUDS BELOW 12,000 FEET WITH NO
SIGNIFICANT WEATHER AND/OR OBSTRUCTIONS TO VISIBILITY.

* - STATION DOES NOT REPORT WEATHER SUCH AS PRECIPITATION OR FOG.

+ - STATION NOT QUALITY CONTROLLED BY THE NATIONAL WEATHER SERVICE.
    USE DATA WITH CAUTION...ESPECIALLY DEWPOINT AND RELATIVE
    HUMIDITY OBSERVATIONS.

INZ001>003-010>013-019-020-080400-
NORTHWEST INDIANA

CITY           SKY/WX    TMP DP  RH WIND       PRES   REMARKS
GARY /AIRPORT/ PTCLDY    59  52  77 N14       30.10R
KNOX *+        PTCLDY    54  48  82 N5        30.07R
LA PORTE +     PTCLDY    59  50  72 N13       30.08R
MICHIGAN CITY+ PTCLDY    57  46  67 N10       30.08R
MONTICELLO +   PTCLDY    58  50  76 N6        30.06R
RENSSELAER +   PTCLDY    57  54  88 N5        30.08R
VALPARAISO     PTCLDY    58  49  72 N7        30.08R

$$

LMZ046-743>745-080400-
SOUTHERN LAKE MICHIGAN

STATION/POSITION TIME  TEMP    WIND        PRES    WAVE
                       AIR SEA DIR/SP/G            HT
                 (UTC) (F)     (DEG/KT/KT) (MB)    (FT)
BURNS HARBOR     0300   62      30/ 19/ 22 1019.0R
MICHIGAN CITY    0300   61     350/ 23/ 25   N/A
5NW MICH CITY    0300   61 65   20/ 16/ 21   N/A     8

$$

INZ004-005-014>016-021>024-080400-
NORTH CENTRAL INDIANA

CITY           SKY/WX    TMP DP  RH WIND       PRES   REMARKS
GOSHEN         CLEAR     57  51  80 N5        30.05R
LOGANSPORT +   PTCLDY    55  45  67 N6        30.07R
PERU/GRISSOM   PTCLDY    58  50  74 NW2       30.05R
ROCHESTER +    PTCLDY    57  52  82 CALM      30.06R
SOUTH BEND     CLEAR     56  49  77 N5        30.07R
WARSAW +         N/A     55  50  82 NW5       30.06R

$$

INZ006>009-017-018-025>027-080400-
NORTHEAST INDIANA

CITY           SKY/WX    TMP DP  RH WIND       PRES   REMARKS
ANGOLA *+      CLOUDY    63  52  67 NE5       30.04R
AUBURN +       CLOUDY    64  57  77 CALM      30.05R
FORT WAYNE     CLOUDY    64  56  75 NW6       30.04R
HUNTINGTON +   CLOUDY    61  53  74 NW3       30.04R

$$

INZ028-029-035-036-043>045-051>053-080400-
WEST CENTRAL INDIANA

CITY           SKY/WX    TMP DP  RH WIND       PRES   REMARKS
CRAWFORDSVL +  PTCLDY    58  45  60 N7        30.07R
GREENCASTLE +  CLOUDY    61  46  59 N9        30.06R
LAFAYETTE      CLEAR     59  49  69 N6        30.07R
TERRE HAUTE    CLOUDY    64  52  64 N8        30.06R

$$

INZ030>032-037>040-046>048-054>057-064-065-080400-
CENTRAL INDIANA

CITY           SKY/WX    TMP DP  RH WIND       PRES   REMARKS
CP ATTERBURY + CLOUDY    64  59  82 N5        30.05R
FISHERS *+     CLOUDY    61  54  77 N5        30.05R
FRANKFORT +    PTCLDY    58  51  77 CALM      30.08R
INDIANAPOLIS   CLOUDY    63  50  62 N12       30.04R
-EAGLE CREEK   CLOUDY    63  51  65 N8        30.05R
KOKOMO *+      PTCLDY    59  50  72 N6        30.05R
MARION +       MOCLDY    60  52  75 NW5       30.06R
MT COMFORT *+  MOCLDY    63  61  94 N8        30.05R
SHELBYVILLE    CLOUDY    66  59  78 NW7       30.03R
ZIONSVILLE +   MOCLDY    62  49  63 N9        30.06R

$$

INZ033-034-041-042-049-050-058-059-080400-
EAST CENTRAL INDIANA

CITY           SKY/WX    TMP DP  RH WIND       PRES   REMARKS
MUNCIE         CLOUDY    64  57  78 N8        30.04R

$$

INZ060-061-067>069-081>083-085>088-080400-
SOUTHWEST INDIANA

CITY           SKY/WX    TMP DP  RH WIND       PRES   REMARKS
EVANSVILLE     CLOUDY    71  69  93 N6        30.03R
HUNTINGBURG *+ CLOUDY    72  68  88 N12       30.02R
WASHINGTON +   CLOUDY    66  63  88 N5        30.03R

$$

INZ062-063-066-070>080-084-089>092-080400-
SOUTH CENTRAL AND SOUTHEAST INDIANA

CITY           SKY/WX    TMP DP  RH WIND       PRES   REMARKS
BLOOMINGTON    CLOUDY    65  62  90 N6        30.04R
MADISON *+     CLOUDY    72  68  88 NW6       30.04R
NORTH VERNON + CLOUDY    66  66 100 N5        30.05R
SEYMOUR +      CLOUDY    68  66  94 N9        30.03R

$$



USA.gov is the U.S. government's official web portal to all federal, state and local government web resources and services.